Location: Newark
(36.7000°N, 45.1333°E)
Time: 15:33:02
(UTC+00:00)

LightSail 2 - Pass Details

Date: 25 January 2020
Orbit: 701 x 721 km, 24.0° (Epoch: 16 February)

Event Time Altitude Azimuth Distance (km) Brightness Sun altitude
Rises 15:37:55 0° 248° (WSW) 3,078 10.1 -16.3°
Reaches altitude 10° 15:41:07 10° 228° (SW) 2,163 8.5 -16.9°
Maximum altitude 15:44:19 17° 189° (S) 1,755 7.4 -17.6°
Drops below altitude 10° 15:47:32 10° 150° (SSE) 2,171 7.4 -18.2°
Enters shadow 15:48:19 - 143° (SE) 2,366 7.6 -18.4°
